Regional Weather Roundup
Issued by NWS

Home | Current Version | Previous Version | Graphics & Text | Print | Product List | Glossary On
Versions: 1 2 3 4 5 6 7 8 9 10 11 12 13 14 15 16 17 18 19 20 21 22 23 24 25 26 27 28 29 30 31 32 33 34 35 36 37 38 39 40 41 42 43 44 45 46 47 48 49 50
000
ASUS44 KMEG 272100
RWRTN
TENNESSEE HOURLY STATE WEATHER ROUNDUP
NATIONAL WEATHER SERVICE MEMPHIS TN
300 PM CST MON FEB 27 2017

TNZ002-004-019-021-049-052-054-088>092-272200-
WEST TENNESSEE

CITY           SKY/WX    TMP DP  RH WIND       PRES   REMARKS
MEMPHIS INTL   MOSUNNY   66  51  58 S8        30.09S
NWS MEMPHIS      N/A     67 N/A N/A MISG        N/A
JACKSON        SUNNY     63  48  58 SE6       30.11S
UNION CITY     MOSUNNY   64  45  48 S6G15     30.07F
PARIS          SUNNY     63  46  55 S8        30.10F
$$

TNZ008-025-027-028-033-062-065-066-272200-
NORTH MIDDLE TENNESSEE

CITY           SKY/WX    TMP DP  RH WIND       PRES   REMARKS
NASHVILLE      MOSUNNY   61  40  45 S13G20    30.16F
CLARKSVILLE    MOSUNNY   64  43  46 S7        30.12F
SMYRNA         SUNNY     61  44  53 S8G16     30.17F
CROSSVILLE     CLOUDY    50  35  56 S10G20    30.20F
$$

TNZ061-075-076-078-094-096-097-272200-
SOUTH MIDDLE TENNESSEE

CITY           SKY/WX    TMP DP  RH WIND       PRES   REMARKS
TULLAHOMA      CLOUDY    54  45  71 S8        30.18F
WINCHESTER     CLOUDY    54  45  71 SE13      30.19F
MCMINNVILLE    CLOUDY    55  45  67 S8        30.18F
COLUMBIA       SUNNY     59  48  67 S7        30.13F
SHELBYVILLE    MOSUNNY   59  46  63 SE10      30.18F
$$

TNZ017-018-042-046-047-272200-
NORTHEAST TENNESSEE

CITY           SKY/WX    TMP DP  RH WIND       PRES   REMARKS
TRI CITIES     CLOUDY    57  21  24 S13       30.24R
$$

TNZ012-013-036-069-073-074-272200-
CENTRAL EAST TENNESSEE

CITY           SKY/WX    TMP DP  RH WIND       PRES   REMARKS
KNOXVILLE      CLOUDY    56  36  47 W7        30.20F
OAK RIDGE      CLOUDY    52  37  56 W5        30.23F
GATLINBURG     CLOUDY    52  34  50 E7        30.21S
$$

TNZ083-085-099-272200-
SOUTHEAST TENNESSEE

CITY           SKY/WX    TMP DP  RH WIND       PRES   REMARKS
CHATTANOOGA    CLOUDY    51  42  71 CALM      30.23F
$$

SKY/WX REPORTED AS FAIR MEANS FEW OR NO CLOUDS BELOW
12 THOUSAND FEET.




USA.gov is the U.S. government's official web portal to all federal, state and local government web resources and services.